This is the latest recevied weather packets stored in our database for station/object DL9GJ-6. If no packets are shown the sender has not sent any weather packets the latest 10 day(s).
| Time | Temp. | Humidity | Pressure | Rain* | Wind** | Luminosity | Snow |
|---|---|---|---|---|---|---|---|
| 1777355397 | 7.22° C | 72% | 1016.6 hPa | 0 mm | - | 92 W/m² | - |
| 1777355369 | 7.22° C | 72% | 1016.6 hPa | 0 mm | - | 92 W/m² | - |
| 1777355036 | 7.22° C | 72% | 1016.6 hPa | 0 mm | - | 84 W/m² | - |
| 1777355009 | 7.22° C | 72% | 1016.6 hPa | 0 mm | - | 84 W/m² | - |
| 1777354678 | 7.22° C | 72% | 1016.7 hPa | 0 mm | - | 79 W/m² | - |
| 1777354318 | 7.22° C | 72% | 1016.5 hPa | 0 mm | - | 78 W/m² | - |
| 1777353957 | 7.22° C | 73% | 1016.5 hPa | 0 mm | - | 69 W/m² | - |
| 1777353598 | 6.67° C | 74% | 1016.5 hPa | 0 mm | - | 57 W/m² | - |
| 1777353237 | 6.67° C | 75% | 1016.6 hPa | 0 mm | - | 51 W/m² | - |
| 1777353209 | 6.67° C | 75% | 1016.6 hPa | 0 mm | - | 51 W/m² | - |
| 1777352878 | 6.11° C | 77% | 1016.5 hPa | 0 mm | - | 51 W/m² | - |
| 1777352849 | 6.11° C | 77% | 1016.5 hPa | 0 mm | - | 51 W/m² | - |
| 1777352517 | 5.56° C | 79% | 1016.5 hPa | 0 mm | - | 49 W/m² | - |
| 1777352158 | 5.56° C | 81% | 1016.4 hPa | 0 mm | - | 44 W/m² | - |
| 1777351797 | 4.44° C | 83% | 1016.3 hPa | 0 mm | - | 34 W/m² | - |
| 1777351438 | 4.44° C | 84% | 1016.4 hPa | 0 mm | - | 34 W/m² | - |
| 1777351078 | 4.44° C | 84% | 1016.4 hPa | 0 mm | - | 26 W/m² | - |
| 1777350717 | 3.89° C | 85% | 1016.4 hPa | 0 mm | - | 19 W/m² | - |
| 1777350691 | 3.89° C | 85% | 1016.4 hPa | 0 mm | - | 19 W/m² | - |
| 1777350356 | 3.89° C | 85% | 1016.4 hPa | 0 mm | - | 13 W/m² | - |
| 1777350330 | 3.89° C | 85% | 1016.4 hPa | 0 mm | - | 13 W/m² | - |
| 1777349997 | 3.33° C | 86% | 1016.4 hPa | 0 mm | - | 5 W/m² | - |
| 1777349636 | 3.33° C | 86% | 1016.4 hPa | 0 mm | - | 0 W/m² | - |
| 1777349610 | 3.33° C | 86% | 1016.4 hPa | 0 mm | - | 0 W/m² | - |
| 1777349276 | 3.33° C | 86% | 1016.4 hPa | 0 mm | - | 0 W/m² | - |
* Rain latest hour (hover to see other rain measurements)
** Current wind speed in m/s (hover to see current wind gust speed)